Simultaneous Nadir Overpasses (SNOs) Predictions

Prediction of SNOs between GOES-16 and AQUA Satellite Orbit:

Table of predicted SNOs for the next 14.0 days since TLE Epoch: 8/11/2018
Index Date Time (GOES-16) GOES-16 Lat,Lon AQUA Lat,Lon Distance(km) Time Diff (sec)
1 08/12/2018 06:33:07 -0.03, -75.20 -0.27, -74.04 132.45 80
2 08/12/2018 18:51:50 0.03, -75.20 -0.84, -79.22 457.45 80
3 08/14/2018 06:20:54 -0.03, -75.21 -0.89, -71.08 469.70 80
4 08/14/2018 18:39:37 0.03, -75.21 -0.22, -76.26 120.00 80
5 08/16/2018 18:30:05 0.03, -75.23 0.47, -73.31 218.29 80
6 08/17/2018 06:51:20 -0.04, -75.23 0.68, -78.46 367.83 80
7 08/19/2018 06:39:08 -0.04, -75.25 -0.01, -75.51 29.16 80
8 08/21/2018 06:24:15 -0.05, -75.28 -0.65, -72.55 310.29 80
9 08/21/2018 18:48:18 0.05, -75.29 -0.46, -77.74 278.93 80
10 08/23/2018 18:36:05 0.05, -75.32 0.17, -74.78 61.04 80




NCC Satellite Simultaneous Nadir Overpasses (SNOs) Prediction Service
